This demonstration page uses our WeatherBlox Daily Observations layout. Learn more.

Left ArrowRight Arrow

34.02893, -84.19858

Hourly Observations for August 19, 2015

Temp ( °F °C ) Dew Point ( °F °C ) Humidity (%) Winds ( mph kmh ) Pressure ( in mb ) Visibility ( mi km ) Precip ( " mm )
12:53 am 00:53 Clear 72 22.2 72 22.2 100 100 S 5 7 29.95 1014 10 16 0.00 0.00
1:53 am 01:53 Mostly Clear 72 22.2 72 22.2 100 100 Calm 29.95 1014 10 16 0.00 0.00
2:34 am 02:34 Mostly Cloudy 72 22 72 22 100 100 S 3 6 29.97 1015 8 13 0.00 0.00
2:53 am 02:53 Mostly Cloudy 73 22.8 73 22.8 100 100 S 3 6 29.94 1014 8 13 0.00 0.00
3:06 am 03:06 Cloudy 73 22.8 73 22.8 100 100 Calm 29.97 1015 7 11 0.00 0.00
3:53 am 03:53 Cloudy 74 23.3 74 23.3 100 100 S 5 7 29.93 1013 9 14 0.00 0.00
4:21 am 04:21 Cloudy 74 23.3 74 23.3 100 100 SSW 3 6 29.94 1014 8 13 0.00 0.00
4:53 am 04:53 Mostly Cloudy 74 23.3 74 23.3 100 100 SW 5 7 29.92 1013 8 13 0.00 0.00
5:11 am 05:11 Partly Cloudy 74 23.3 74 23.3 100 100 SW 5 7 29.97 1015 8 13 0.00 0.00
5:53 am 05:53 Clear 74 23.3 74 23.3 100 100 SW 6 9 29.95 1014 8 13 0.00 0.00
6:53 am 06:53 Clear 74 23.3 73 22.8 97 97 WSW 3 6 29.97 1015 10 16 0.00 0.00
7:53 am 07:53 Sunny 74 23.3 73 22.8 97 97 Calm 29.98 1015 10 16 0.00 0.00
8:53 am 08:53 Mostly Cloudy 76 24.4 74 23.3 94 94 WSW 6 9 29.98 1015 10 16 0.00 0.00
9:53 am 09:53 Mostly Cloudy 80 26.7 74 23.3 82 82 VRB 6 9 29.98 1015 10 16 0.00 0.00
10:53 am 10:53 Cloudy 80 26.7 74 23.3 82 82 WSW 9 15 29.99 1016 10 16 0.00 0.00
11:53 am 11:53 Mostly Sunny 83 28.3 75 23.9 77 77 WSW 9 15 29.98 1015 10 16 0.00 0.00
12:53 pm 12:53 Mostly Sunny 85 29.4 75 23.9 72 72 SW 7 11 29.96 1015 10 16 0.00 0.00
1:53 pm 13:53 Mostly Cloudy 83 28.3 74 23.3 74 74 WSW 9 15 29.94 1014 10 16 0.00 0.00
2:53 pm 14:53 Mostly Cloudy 86 30 74 23.3 67 67 W 6 9 29.92 1013 10 16 0.00 0.03
3:21 pm 15:21 Mostly Cloudy with Nearby Thunderstorms 84 28.9 73 22.8 70 70 NNW 6 9 29.91 1013 10 16 0.00 0.00
3:28 pm 15:28 Mostly Cloudy 84 29 72 22 66 66 NW 6 9 29.91 1013 10 16 0.00 0.00
3:53 pm 15:53 Mostly Cloudy 87 30.6 73 22.8 63 63 undefined N/A 29.90 1013 10 16 0.00 0.00
4:42 pm 16:42 Cloudy with Nearby Thunderstorms 82 28 72 22 70 70 W 8 13 29.88 1012 3 5 0.00 0.00
4:46 pm 16:46 Cloudy with Nearby Thunderstorms 81 27 73 23 79 79 W 7 11 29.91 1013 7 11 0.00 0.00
4:53 pm 16:53 Cloudy with Nearby Thunderstorms 80 26.7 74 23.3 82 82 SSW 12 19 29.92 1013 7 11 0.04 1.02
5:06 pm 17:06 Cloudy with Nearby Thunderstorms 79 26 73 23 84 84 S 13 20 29.91 1013 2 3 0.00 0.00
5:10 pm 17:10 Cloudy with Nearby Thunderstorms 77 25 73 23 89 89 S 12 19 29.91 1013 3 4 0.00 0.00
5:25 pm 17:25 Cloudy with Light Rain 76 24.4 75 23.9 97 97 SSE 8 13 29.97 1015 8 13 0.16 4.06
5:44 pm 17:44 Mostly Cloudy with Nearby Thunderstorms 75 24 73 23 94 94 SSE 7 11 29.91 1013 8 13 0.00 0.00
5:53 pm 17:53 Cloudy with Nearby Thunderstorms 76 24.4 75 23.9 97 97 SSE 8 13 29.93 1014 8 13 0.17 4.32
6:16 pm 18:16 Cloudy with Thunderstorms 75 24 75 24 100 100 SSW 14 22 29.97 1015 3 4 0.00 0.00
6:18 pm 18:18 Cloudy with Thunderstorms 75 24 73 23 94 94 S 13 20 29.97 1015 1 1 0.00 0.00
6:26 pm 18:26 Cloudy with Thunderstorms 73 23 73 23 100 100 SE 6 9 29.97 1015 2 3 0.00 0.00
6:38 pm 18:38 Cloudy with Light Rain 73 23 73 23 100 100 SSE 9 15 29.97 1015 2 3 0.00 0.00
6:47 pm 18:47 Mostly Cloudy with Nearby Thunderstorms 73 23 73 23 100 100 S 8 13 29.97 1015 8 13 0.22 5.59
6:53 pm 18:53 Mostly Cloudy with Nearby Thunderstorms 74 23.3 74 23.3 100 100 S 7 11 29.95 1014 8 13 0.23 5.84
7:26 pm 19:26 Mostly Cloudy with Light Rain 73 23 73 23 100 100 S 5 7 29.97 1015 4 6 0.00 0.00
7:53 pm 19:53 Partly Cloudy with Light Rain 74 23.3 74 23.3 100 100 ESE 3 6 29.94 1014 5 8 0.05 1.27
8:53 pm 20:53 Clear 74 23.3 74 23.3 100 100 S 7 11 29.95 1014 10 16 0.03 0.76
9:49 pm 21:49 Mostly Cloudy with Light Rain 73 23 73 23 100 100 S 5 7 30.00 1016 10 16 0.00 0.03
9:53 pm 21:53 Mostly Cloudy 74 23.3 74 23.3 100 100 S 5 7 29.97 1015 10 16 0.00 0.03
10:30 pm 22:30 Mostly Cloudy 73 23 73 23 100 100 S 5 7 30.00 1016 10 16 0.00 0.00
10:53 pm 22:53 Mostly Clear 74 23.3 74 23.3 100 100 Calm 29.98 1015 9 14 0.00 0.00
11:53 pm 23:53 Partly Cloudy 74 23.3 74 23.3 100 100 Calm 29.96 1015 9 14 0.00 0.00

Powered by AerisWeather